Regional Weather Roundup
Issued by NWS

Home | Current Version | Previous Version | Text Only | Print | Product List | Glossary Off
Versions: 1 2 3 4 5 6 7 8 9 10 11 12 13 14 15 16 17 18 19 20 21 22 23 24 25 26 27 28 29 30 31 32 33 34 35 36 37 38 39 40 41 42 43 44 45 46 47 48 49 50

000
ASUS43 KDMX 222006
RWRIA

WEATHER ROUNDUP FOR IOWA
NATIONAL WEATHER SERVICE DES MOINES IA
300 PM CDT FRI SEP 22 2017

NOTE: "FAIR" INDICATES FEW OR NO CLOUDS BELOW 12,000 FEET WITH NO
SIGNIFICANT WEATHER AND/OR OBSTRUCTIONS TO VISIBILITY.

* - THESE STATIONS ARE NOT NWS STATIONS...THUS NOT UNDER NWS
QUALITY CONTROL.  THEY ALSO DO NOT REPORT WEATHER SUCH
AS PRECIPITATION OR FOG.

IAZ001>003-012>014-020>022-031>034-043>046-222100-
   NORTHWEST IOWA

CITY           SKY/WX    TMP DP  RH WIND       PRES   REMARKS
CARROLL *      SUNNY     93  72  49 S21G29    29.85S HX 100
CHEROKEE *     SUNNY     91  71  52 S18G31    29.78F HX  97
DENISON *      SUNNY     91  72  52 S21G29    29.84S HX  98
LE MARS *      SUNNY     91  72  52 S20G29    29.75S HX  98
ORANGE CITY *  SUNNY     91  72  52 S20G30    29.77S HX  98
SHELDON *      SUNNY     90  70  51 S18G29    29.76S HX  95
SIOUX CITY     SUNNY     93  71  48 S24G31    29.76S HX 100
SPENCER        SUNNY     92  69  47 S24G32    29.79F HX  97
STORM LAKE *   SUNNY     91  70  49 S22G31    29.82S HX  97
$$

IAZ055>058-069>071-079>083-090>094-222100-
   SOUTHWEST IOWA

CITY           SKY/WX    TMP DP  RH WIND       PRES   REMARKS
ATLANTIC *     SUNNY     91  72  52 S16G28    29.86S HX  98
AUDUBON *      SUNNY     90  73  58 S16G25    29.88F HX  98
CLARINDA *     SUNNY     93  70  46 S15G24    29.89F HX  99
COUNCIL BLFS * SUNNY     91  72  52 S21G26    29.84S HX  98
CRESTON *      SUNNY     91  66  43 S22G30    29.92F HX  94
HARLAN  *      SUNNY     91  70  49 S23G30    29.88S HX  97
LAMONI         SUNNY     90  70  51 S15G24    29.93F HX  95
RED OAK *      SUNNY     91  70  49 S21G28    29.86F HX  97
SHENANDOAH *   SUNNY     93  70  46 S20G28    29.86F HX  99
$$

IAZ047>049-059>061-072>074-084-222100-
   CENTRAL IOWA

CITY           SKY/WX    TMP DP  RH WIND       PRES   REMARKS
AMES           SUNNY     90  72  55 S16G26    29.89F HX  97
ANKENY *       SUNNY     90  70  51 S16G26    29.90F HX  95
BOONE *        SUNNY     91  68  46 S18G25    29.89S HX  95
CHARITON *     SUNNY     88  70  55 S17G24    29.94F HX  92
DES MOINES     MOSUNNY   91  69  48 S21G29    29.90F HX  96
GRINNELL*      SUNNY     90  68  48 S14G21    29.96F HX  93
KNOXVILLE *    SUNNY     90  68  48 S15G24    29.93F HX  93
MARSHALLTOWN   SUNNY     91  70  49 S14G26    29.92F HX  96
NEWTON *       SUNNY     90  70  51 S16G25    29.94F HX  95
PELLA *        SUNNY     91  67  44 S14G20    29.95F HX  94
PERRY *          N/A     94  62  34 S21G26    29.88F HX  95
$$

IAZ004>006-015-016-023>025-035-036-222100-
   NORTH CENTRAL IOWA

CITY           SKY/WX    TMP DP  RH WIND       PRES   REMARKS
ALGONA *       SUNNY     91  72  52 S20G30    29.83F HX  98
CLARION *      SUNNY     91  70  49 S21G30    29.87F HX  97
ESTHERVILLE    SUNNY     90  71  53 S23G33    29.80F HX  96
FORT DODGE *   SUNNY     91  71  51 S21       29.86F HX  97
MASON CITY     SUNNY     91  67  44 S22G31    29.89F HX  94
FOREST CITY *    N/A     90  68  48 S18G26    29.87S HX  93
WEBSTER CITY * SUNNY     90  68  48 S20G28    29.86S HX  93
IOWA FALLS *     N/A     91  69  47 S17G25    29.92S HX  95
$$

IAZ007>011-017>019-026>030-037>042-050>054-066-222100-
   NORTHEAST IOWA

CITY           SKY/WX    TMP DP  RH WIND       PRES   REMARKS
CEDAR RAPIDS   SUNNY     91  67  44 S18G28    29.97F HX  94
CHARLES CITY * SUNNY     91  66  43 S17G24    29.92F HX  94
CLINTON *      SUNNY    N/A N/A N/A SW16      30.01F
DECORAH *      SUNNY     91  66  43 S13G22    29.94S HX  94
DUBUQUE        SUNNY     88  67  49 S16       30.00F HX  91
MONTICELLO *   MOSUNNY   93  68  43 S14G21    29.97F HX  97
OELWEIN *      SUNNY     93  66  40 S20G25    29.95F HX  96
WATERLOO       SUNNY     92  63  38 S22G29    29.91F HX  93
$$

IAZ064-065-067-068-078-222100-
   EAST CENTRAL IOWA

CITY           SKY/WX    TMP DP  RH WIND       PRES   REMARKS
DAVENPORT      SUNNY     90  67  46 S12G18    30.02F HX  93
IOWA CITY      MOSUNNY   94  68  42 S13       29.98F HX  98
MUSCATINE *    MOSUNNY   91  68  46 S8G20     29.98F HX  95
QUAD CITIES    SUNNY     93  65  39 S12G17    29.99F HX  95
$$

IAZ062-063-075>077-085>089-095>099-222100-
   SOUTHEAST IOWA

CITY           SKY/WX    TMP DP  RH WIND       PRES   REMARKS
BURLINGTON     SUNNY     92  67  43 S14       29.99F HX  95
FAIRFIELD *    MOSUNNY   91  66  43 S14G20    29.98S HX  94
FORT MADISON * SUNNY     93  66  40 S12G18    30.00F HX  96
KEOKUK *       SUNNY     93  66  40 S12G18    29.98F HX  96
OSKALOOSA *      N/A     91  68  47 S13G22    29.97F HX  95
OTTUMWA        MOSUNNY   91  69  48 S16G23    29.97F HX  96
WASHINGTON *   SUNNY     91  70  49 S15       29.99F HX  97
$$

ABBREVIATIONS USED IN REMARKS
   TC - TEMPERATURES IN CELSIUS
  WCI - WIND CHILL INDEX
   HX - HEAT INDEX
  VSB - VISIBILITY
$$





USA.gov is the U.S. government's official web portal to all federal, state and local government web resources and services.